This is the latest recevied weather packets stored in our database for station/object KJ6APE. If no packets are shown the sender has not sent any weather packets the latest 10 day(s).
| Time | Temp. | Humidity | Pressure | Rain* | Wind** | Luminosity | Snow |
|---|---|---|---|---|---|---|---|
| 1777690951 | 16.67° C | 65% | 1012.2 hPa | 0 mm | - | 2 W/m² | - |
| 1777690648 | 17.22° C | 64% | 1012 hPa | 0 mm | - | 4 W/m² | - |
| 1777690346 | 17.22° C | 64% | 1012.1 hPa | 0 mm | - | 7 W/m² | - |
| 1777690043 | 17.78° C | 63% | 1012.1 hPa | 0 mm | - | 11 W/m² | - |
| 1777689741 | 17.78° C | 62% | 1012.1 hPa | 0 mm | - | 17 W/m² | - |
| 1777689439 | 18.33° C | 61% | 1012.1 hPa | 0 mm | - | 25 W/m² | - |
| 1777689136 | 18.89° C | 61% | 1012.2 hPa | 0 mm | - | 32 W/m² | - |
| 1777688833 | 19.44° C | 59% | 1012 hPa | 0 mm | - | 34 W/m² | - |
| 1777688530 | 19.44° C | 57% | 1012 hPa | 0 mm | - | 42 W/m² | - |
| 1777688227 | 20° C | 56% | 1012 hPa | 0 mm | - | 52 W/m² | - |
| 1777687924 | 20° C | 55% | 1011.9 hPa | 0 mm | - | 72 W/m² | - |
| 1777687621 | 20.56° C | 55% | 1011.8 hPa | 0 mm | - | 82 W/m² | - |
| 1777687318 | 20.56° C | 55% | 1011.9 hPa | 0 mm | - | 88 W/m² | - |
| 1777687016 | 20.56° C | 53% | 1012 hPa | 0 mm | - | 104 W/m² | - |
| 1777686712 | 21.11° C | 53% | 1011.8 hPa | 0 mm | - | 151 W/m² | - |
| 1777686410 | 21.11° C | 53% | 1011.8 hPa | 0 mm | - | 171 W/m² | - |
| 1777686107 | 21.11° C | 53% | 1011.7 hPa | 0 mm | - | 150 W/m² | - |
| 1777685802 | 21.67° C | 52% | 1011.6 hPa | 0 mm | - | 135 W/m² | - |
| 1777685498 | 21.11° C | 53% | 1011.8 hPa | 0 mm | - | 190 W/m² | - |
| 1777685196 | 21.11° C | 53% | 1011.8 hPa | 0 mm | - | 169 W/m² | - |
| 1777684894 | 21.67° C | 53% | 1011.9 hPa | 0 mm | - | 64 W/m² | - |
| 1777684590 | 22.22° C | 51% | 1011.8 hPa | 0 mm | - | 69 W/m² | - |
| 1777684286 | 22.78° C | 50% | 1011.6 hPa | 0 mm | - | 222 W/m² | - |
| 1777683984 | 23.33° C | 49% | 1011.8 hPa | 0 mm | - | 269 W/m² | - |
| 1777683680 | 23.33° C | 49% | 1011.6 hPa | 0 mm | - | 314 W/m² | - |
* Rain latest hour (hover to see other rain measurements)
** Current wind speed in m/s (hover to see current wind gust speed)